Regional Weather Roundup
Issued by NWS

Home | Current Version | Previous Version | Graphics & Text | Print | Product List | Glossary On
Versions: 1 2 3 4 5 6 7 8 9 10 11 12 13 14 15 16 17 18 19 20 21 22 23 24 25 26 27 28 29 30 31 32 33 34 35 36 37 38 39 40 41 42 43 44 45 46 47 48 49 50
571
ASUS44 KJAN 212110
RWRMS

MISSISSIPPI HOURLY WEATHER ROUNDUP
NATIONAL WEATHER SERVICE JACKSON MS
400 PM CDT SUN SEP 21 2014

NOTE: "FAIR: INDICATES FEW OR NO CLOUDS BELOW 12,000 FEET WITH NO
SIGNIFICANT WEATHER AND/OR OBSTRUCTIONS TO VISIBILITY.

MSZ001>002-007>008-010>013-018>021-025>028-034>036-212200-
NORTHWEST MISSISSIPPI

CITY           SKY/WX    TMP DP  RH WIND       PRES   REMARKS
CLARKSDALE     FAIR      91  68  46 NW9       29.96F HX  95
CLEVELAND      FAIR      93  66  41 NW8       29.96F HX  95
GREENWOOD      MOSUNNY   92  64  39 VRB3      29.96F HX  93
GREENVILLE     SUNNY     93  65  39 N8        29.96F HX  95
GRENADA        FAIR      90  64  43 NW3       29.96F HX  91
OLIVE BRANCH   PTSUNNY   88  73  62 N12       29.97S HX  96
OXFORD         FAIR      86  66  51 W7        29.98F
TUNICA         PTCLDY    88  68  51 W10       29.97S HX  91
$$

MSZ003>006-009-014>017-022>024-029>033-037>039-212200-
NORTHEAST MISSISSIPPI

CITY           SKY/WX    TMP DP  RH WIND       PRES   REMARKS
COLUMBUS AFB   SUNNY     88  66  47 VRB3      29.95F HX  91
CORINTH        FAIR      88  68  51 W12       29.94F HX  91
STARKVILLE     FAIR      90  63  40 N3        29.96F HX  90
TUPELO         MOSUNNY   89  67  47 W9        29.95F HX  92
$$

MSZ040-058-212200-
CENTRAL MISSISSIPPI

CITY           SKY/WX    TMP DP  RH WIND       PRES   REMARKS
JACKSON INTL   PTSUNNY   91  64  40 NE5       29.98F HX  92
JACKSON HAWKNS SUNNY     92  64  39 VRB3      29.98F HX  93
MERIDIAN KEY   SUNNY     88  59  37 CALM      29.97F
MERIDIAN NAS   SUNNY     88  60  38 CALM      29.97F
RAYMOND        FAIR      91  86  84 CALM      29.98F HX 122
VICKSBURG      SUNNY     92  63  38 CALM      29.97F HX  93
$$

MSZ059>079-212200-
SOUTH MISSISSIPPI

CITY           SKY/WX    TMP DP  RH WIND       PRES   REMARKS
BROOKHAVEN     FAIR      88  64  45 N6        30.01F
COLUMBIA       FAIR      88  63  42 N7        29.98F
HATTIESBURG    MOSUNNY   89  66  46 VRB3      29.98F HX  91
MCCOMB         SUNNY     90  60  36 MISG      29.99F
NATCHEZ        SUNNY     88  70  55 E7        30.00F HX  92
PINE BELT      SUNNY    N/A N/A N/A NE8       30.00F
$$

MSZ080>082-212200-
COASTAL MISSISSIPPI

CITY           SKY/WX    TMP DP  RH WIND       PRES   REMARKS
BILOXI         SUNNY     87  70  57 S9        29.97F HX  91
PASCAGOULA     MOSUNNY   85  70  60 SE7       29.97F
GULFPORT       MOSUNNY   87  68  52 S8        29.97F HX  90
$$



USA.gov is the U.S. government's official web portal to all federal, state and local government web resources and services.